Regional Weather Roundup
Issued by NWS

Home | Current Version | Previous Version | Text Only | Print | Product List | Glossary On
Versions: 1 2 3 4 5 6 7 8 9 10 11 12 13 14 15 16 17 18 19 20 21 22 23 24 25 26 27 28 29 30 31 32 33 34 35 36 37 38 39 40 41 42 43 44 45 46 47 48 49 50
009
ASUS44 KJAN 180810
RWRMS

MISSISSIPPI HOURLY WEATHER ROUNDUP
NATIONAL WEATHER SERVICE JACKSON MS
300 AM CDT FRI APR 18 2014

NOTE: "FAIR: INDICATES FEW OR NO CLOUDS BELOW 12,000 FEET WITH NO
SIGNIFICANT WEATHER AND/OR OBSTRUCTIONS TO VISIBILITY.

MSZ001>002-007>008-010>013-018>021-025>028-034>036-180900-
NORTHWEST MISSISSIPPI

CITY           SKY/WX    TMP DP  RH WIND       PRES   REMARKS
CLARKSDALE       N/A     55  54  94 CALM      30.21F
CLEVELAND      FAIR      56  54  94 NE3       30.18F
GREENWOOD      PTCLDY    56  50  80 E3        30.18F
GREENVILLE     CLOUDY    57  52  83 CALM      30.17F
GRENADA        FAIR      52  50  93 CALM      30.19F
OLIVE BRANCH   CLEAR     54  46  76 E3        30.21F
OXFORD         MOCLDY    52  48  87 CALM      30.22F
TUNICA         CLOUDY    55  50  82 CALM      30.21F
$$

MSZ003>006-009-014>017-022>024-029>033-037>039-180900-
NORTHEAST MISSISSIPPI

CITY           SKY/WX    TMP DP  RH WIND       PRES   REMARKS
BELMONT        FAIR      58  48  69 CALM      30.22F
COLUMBUS AFB   CLOUDY    56  52  85 NW2       30.21F
CORINTH        CLOUDY    59  46  63 SE5       30.23S
GOLDN TRIANGLE CLOUDY    57  48  72 NE6       30.23S
STARKVILLE     FAIR      57  52  82 E3        30.20S
TUPELO         CLOUDY    58  50  75 CALM      30.22F
$$

MSZ040-058-180900-
CENTRAL MISSISSIPPI

CITY           SKY/WX    TMP DP  RH WIND       PRES   REMARKS
JACKSON INTL   CLOUDY    58  53  84 NE5       30.14F
JACKSON HAWKNS CLOUDY    60  51  72 NE5       30.15F
MERIDIAN KEY   LGT RAIN  58  54  86 NE3       30.16F
MERIDIAN NAS   CLOUDY    58  52  80 NE3       30.17F
RAYMOND        CLOUDY    57  52  82 CALM      30.15F
VICKSBURG      MOCLDY    60  54  80 N5        30.16F
$$

MSZ059>079-180900-
SOUTH MISSISSIPPI

CITY           SKY/WX    TMP DP  RH WIND       PRES   REMARKS
BROOKHAVEN     FAIR      57  55  94 CALM      30.14F
COLUMBIA       CLOUDY    59  55  88 MISG      30.11S
HATTIESBURG    LGT RAIN  59  58  96 E10       30.11F
MCCOMB         MOCLDY    58  53  84 N3        30.12F
NATCHEZ        PTCLDY    52  48  87 N3        30.13F
PINE BELT      CLOUDY    57  55  94 NE5       30.12F
$$

MSZ080>082-180900-
COASTAL MISSISSIPPI

CITY           SKY/WX    TMP DP  RH WIND       PRES   REMARKS
BILOXI         CLOUDY    61  61 100 NE14      30.05F
PASCAGOULA     LGT RAIN  60  59  96 NE10      30.06F
GULFPORT       LGT RAIN  63  59  87 NE9G17    30.05F
$$



USA.gov is the U.S. government's official web portal to all federal, state and local government web resources and services.